This is the latest recevied weather packets stored in our database for station/object W5HKR. If no packets are shown the sender has not sent any weather packets the latest 1 day(s).
| Time | Temp. | Humidity | Pressure | Rain* | Wind** | Luminosity | Snow |
|---|---|---|---|---|---|---|---|
| 1777983207 | 21.11° C | 91% | 980.3 hPa | 0 mm | 4.02 m/s, 266° | - | - |
| 1777982998 | 21.11° C | 91% | 980 hPa | 0 mm | 5.36 m/s, 268° | - | - |
| 1777982907 | 21.11° C | 91% | 979.8 hPa | 0 mm | 4.47 m/s, 268° | - | - |
| 1777982608 | 18.33° C | 91% | 990.6 hPa | 0 mm | 5.36 m/s, 272° | - | - |
| 1777982008 | 18.33° C | 91% | 990.6 hPa | 0 mm | 4.47 m/s, 271° | - | - |
| 1777981918 | 21.11° C | 91% | 979.8 hPa | 0 mm | 4.47 m/s, 267° | - | - |
| 1777981706 | 18.33° C | 91% | 990.6 hPa | 0 mm | 4.47 m/s, 272° | - | - |
| 1777981407 | 21.11° C | 91% | 979.6 hPa | 0 mm | 4.47 m/s, 264° | - | - |
| 1777981107 | 18.33° C | 91% | 990.6 hPa | 0 mm | 4.47 m/s, 265° | - | - |
| 1777980838 | 21.11° C | 91% | 979.3 hPa | 0 mm | 5.36 m/s, 269° | - | - |
| 1777980807 | 18.33° C | 91% | 990.6 hPa | 0 mm | 5.36 m/s, 266° | - | - |
| 1777980507 | 21.11° C | 91% | 979.3 hPa | 0 mm | 5.81 m/s, 260° | - | - |
| 1777980206 | 18.33° C | 91% | 990.6 hPa | 0 mm | 5.36 m/s, 270° | - | - |
| 1777979907 | 18.33° C | 91% | 990.6 hPa | 0 mm | 5.36 m/s, 267° | - | - |
| 1777979759 | 21.11° C | 91% | 979.7 hPa | 0 mm | 5.81 m/s, 261° | - | - |
| 1777979607 | 18.33° C | 91% | 990.6 hPa | 0 mm | 4.47 m/s, 264° | - | - |
| 1777979006 | 21.11° C | 91% | 979.7 hPa | 0 mm | 5.36 m/s, 267° | - | - |
| 1777978710 | 18.33° C | 91% | 990.6 hPa | 0 mm | 4.47 m/s, 263° | - | - |
| 1777978678 | 18.33° C | 91% | 990.6 hPa | 0 mm | 4.47 m/s, 263° | - | - |
| 1777978406 | 21.11° C | 91% | 979.4 hPa | 0 mm | 4.47 m/s, 267° | - | - |
| 1777978107 | 18.33° C | 91% | 990.6 hPa | 0 mm | 5.36 m/s, 266° | - | - |
| 1777977806 | 18.33° C | 91% | 990.6 hPa | 0 mm | 4.47 m/s, 267° | - | - |
| 1777977597 | 18.33° C | 91% | 990.6 hPa | 0 mm | 4.47 m/s, 266° | - | - |
| 1777977506 | 21.11° C | 91% | 979.7 hPa | 0 mm | 4.47 m/s, 266° | - | - |
| 1777977207 | 18.33° C | 91% | 990.6 hPa | 0 mm | 4.47 m/s, 265° | - | - |
* Rain latest hour (hover to see other rain measurements)
** Current wind speed in m/s (hover to see current wind gust speed)